DateTimeUTC,F1_A11,F1_S11,BsB_S11,BsG_S11,BsR_S11,BbsB_S11,BbsG_S11,BbsR_S11,BaB_A11,BaG_A11,BaR_A11,Tu_S11,T_S11,Uu_S11,U_S11,P_S11,T1_A11
2021-11-29T15:00:00Z,00000200,21000000,,,,,,,0000.27,-000.10,0000.02,18.9,26.0,,00.0,0630.1,30.9
2021-11-29T15:01:00Z,00000200,21000000,,,,,,,-000.62,0000.07,0000.44,18.9,26.0,,00.0,0630.2,30.9
2021-11-29T15:02:00Z,00000200,21000000,,,,,,,0000.33,0000.04,-000.17,18.9,26.0,,00.0,0630.2,30.9
2021-11-29T15:03:00Z,00000200,61000000,,,,,,,-000.00,0000.05,0000.15,18.9,26.0,,00.0,0630.2,30.9
2021-11-29T15:04:00Z,00000200,41000000,0000.52,0000.50,-000.24,-000.44,0000.35,-000.20,0000.18,0000.31,-000.00,19.1,25.8,,00.0,0631.0,30.9
2021-11-29T15:05:00Z,00000200,01000000,-000.23,0000.55,-000.11,0000.07,0000.38,0000.05,0000.55,0000.60,0000.51,19.1,25.8,,00.0,0631.1,30.9
2021-11-29T15:06:00Z,00000200,01000000,0000.32,0000.27,0000.08,-000.51,0000.32,0000.07,0000.02,-000.17,0000.02,19.2,25.8,,00.0,0631.1,30.9
2021-11-29T15:07:00Z,00000200,01000000,-000.13,0000.36,0000.31,0000.52,0000.43,-000.09,0000.17,0000.17,0000.33,19.2,25.8,,00.0,0631.1,30.9
2021-11-29T15:08:00Z,00000200,01000000,0000.32,0000.21,0000.12,0000.69,0000.20,0000.25,0000.28,0000.13,-000.47,19.3,25.8,,00.0,0631.2,30.9
2021-11-29T15:09:00Z,00000200,01000000,0000.02,0000.50,-000.11,-000.44,0000.17,-000.14,-000.03,0000.04,0000.44,19.3,25.8,,00.0,0631.2,30.9
2021-11-29T15:10:00Z,00000200,01000000,0000.07,0000.32,-000.09,-000.20,0000.03,-000.10,0000.16,-000.03,-000.35,19.3,25.9,,00.0,0631.2,30.9
2021-11-29T15:11:00Z,00000200,01000000,0001.01,0000.33,-000.05,0000.29,0000.25,-000.04,-000.32,-000.05,0000.20,19.3,25.9,,00.0,0631.3,30.9
2021-11-29T15:12:00Z,00000200,01000000,-000.24,0000.17,0000.08,-000.71,-000.09,0000.04,0000.55,0000.18,-000.04,19.2,25.8,,00.0,0631.3,30.9
2021-11-29T15:13:00Z,00000200,01000000,0000.60,0000.27,0000.16,-000.26,0000.43,0000.13,-000.38,-000.20,-000.11,19.1,25.8,,00.0,0631.4,30.8
2021-11-29T15:14:00Z,00000200,01000000,0000.44,0000.25,0000.28,-000.13,-000.18,-000.20,0000.22,0000.30,-000.10,19.1,25.7,,00.0,0631.3,30.8
2021-11-29T15:15:00Z,00000200,01000000,0000.10,0000.68,0000.24,0000.48,0000.36,-000.26,0000.19,0000.53,0000.37,19.0,25.7,,00.0,0631.1,30.8
2021-11-29T15:16:00Z,00000200,01000000,-000.05,0000.24,0000.04,-000.15,0000.16,-000.18,0000.59,0000.24,0000.54,19.0,25.7,,00.0,0631.0,30.8
2021-11-29T15:17:00Z,00000200,01000000,0001.03,0000.13,0000.18,0000.28,0000.20,0000.19,0000.51,0000.27,0000.26,19.0,25.7,,00.0,0631.0,30.8
2021-11-29T15:18:00Z,00000200,01000000,0000.81,0000.39,0000.31,-000.13,-000.01,0000.15,-000.07,0000.13,0000.15,19.0,25.7,,00.0,0631.1,30.9
2021-11-29T15:19:00Z,00000200,01000000,0000.47,0000.32,0000.35,-000.04,0000.21,0000.06,0000.40,-000.14,-000.02,19.0,25.7,,00.0,0631.2,30.9
2021-11-29T15:20:00Z,00000200,01000000,0000.28,0000.48,0000.06,0000.17,0000.21,-000.06,-000.05,0000.35,-000.13,19.1,25.7,,00.0,0631.2,30.9
2021-11-29T15:21:00Z,00000200,01000000,0000.78,0000.54,-000.00,0000.29,0000.21,0000.06,-000.05,-000.12,0000.04,19.1,25.7,,00.0,0631.2,30.9
2021-11-29T15:22:00Z,00000200,01000000,0000.15,0000.13,-000.11,0000.05,-000.01,-000.30,0000.27,-000.02,0000.30,19.1,25.7,,00.0,0631.2,30.9
2021-11-29T15:23:00Z,00000200,01000000,-000.14,0000.40,-000.10,-000.39,-000.03,-000.09,-000.07,0000.18,0000.05,19.2,25.7,,00.0,0631.3,30.9
2021-11-29T15:24:00Z,00000200,01000000,0001.04,0000.50,0000.34,-000.27,0000.01,0000.20,-000.06,0000.14,-000.20,19.2,25.7,,00.0,0631.2,30.9
2021-11-29T15:25:00Z,00000200,01000000,-000.22,0000.17,0000.53,-000.12,0000.46,-000.06,0000.29,-000.15,0000.28,19.2,25.8,,00.0,0631.1,30.9
2021-11-29T15:26:00Z,00000200,01000000,0000.20,0000.16,0000.02,-000.08,0000.08,-000.22,0000.10,0000.65,0000.19,19.3,25.8,,00.0,0631.0,30.9
2021-11-29T15:27:00Z,00000200,01000000,-000.06,0000.45,-000.37,-000.34,0000.41,-000.05,0000.42,-000.07,-000.10,19.2,25.8,,00.0,0631.0,30.9
2021-11-29T15:28:00Z,00000200,01000000,0000.35,0000.64,0000.24,0000.12,0000.21,-000.17,0000.10,-000.03,0000.20,19.1,25.7,,00.0,0631.1,30.9
2021-11-29T15:29:00Z,00000200,01000000,-000.04,0000.04,-000.20,-000.24,-000.28,-000.44,-000.29,0000.03,0000.04,19.0,25.7,,00.0,0631.1,30.8
2021-11-29T15:30:00Z,00000200,01000000,0000.71,0000.25,0000.05,0000.38,-000.15,-000.06,0000.34,0000.38,0000.12,19.0,25.6,,00.0,0631.1,30.8
2021-11-29T15:31:00Z,00000200,01000000,0000.96,0000.17,0000.03,0000.26,-000.14,0000.06,0000.05,-000.25,0000.03,18.9,25.6,,00.0,0631.1,30.8
2021-11-29T15:32:00Z,00000200,01000000,0001.22,0000.21,0000.10,0000.04,0000.27,-000.08,0000.26,0000.57,0000.06,19.0,25.6,,00.0,0631.1,30.8
2021-11-29T15:33:00Z,00000200,01000000,0000.41,0000.18,0000.30,-000.10,-000.24,0000.18,0000.12,0000.03,0000.11,19.0,25.6,,00.0,0631.1,30.8
2021-11-29T15:34:00Z,00000200,01000000,0000.80,0000.26,0000.03,-000.11,0000.24,-000.38,-000.06,-000.20,0000.10,19.0,25.6,,00.0,0631.1,30.9
2021-11-29T15:35:00Z,00000200,01000000,-000.01,0000.35,0000.14,0000.02,0000.31,-000.21,0000.33,0000.29,0000.03,19.0,25.6,,00.0,0631.0,30.9
2021-11-29T15:36:00Z,00000200,01000000,0000.63,0000.55,0000.13,0000.47,0000.17,-000.33,0000.33,0000.26,0000.09,19.1,25.6,,00.0,0631.0,30.9
2021-11-29T15:37:00Z,00000200,01000000,0000.93,0000.25,-000.18,-000.02,0000.13,-000.11,-000.12,0000.12,0000.28,19.1,25.6,,00.0,0631.0,30.9
2021-11-29T15:38:00Z,00000200,01000000,0000.87,0000.61,0000.23,0000.07,-000.02,0000.22,0000.29,0000.26,0000.26,19.2,25.6,,00.0,0630.9,30.9
2021-11-29T15:39:00Z,00000200,01000000,0000.15,0000.20,0000.07,-000.05,0000.31,-000.19,0000.11,0000.03,0000.17,19.2,25.7,,00.0,0630.9,30.9
2021-11-29T15:40:00Z,00000200,01000000,-000.02,0000.09,0000.05,-000.25,-000.18,0000.07,0000.23,0000.14,-000.17,19.2,25.7,,00.0,0630.9,30.9
2021-11-29T15:41:00Z,00000200,01000000,0000.55,0000.18,0000.27,-000.17,0000.40,-000.17,-000.06,-000.02,0000.38,19.2,25.7,,00.0,0631.0,30.9
2021-11-29T15:42:00Z,00000200,01000000,0000.26,0000.36,-000.03,-000.02,0000.36,-000.21,0000.12,-000.08,-000.43,19.2,25.7,,00.0,0631.0,30.9
2021-11-29T15:43:00Z,00000200,01000000,0000.83,0000.42,0000.31,0000.30,0000.36,-000.01,-000.03,-000.06,0000.11,19.2,25.7,,00.0,0631.0,30.9
2021-11-29T15:44:00Z,00000200,01000000,0000.03,0000.48,0000.03,-000.15,-000.04,0000.08,0000.08,0000.36,0000.24,19.1,25.7,,00.0,0631.0,30.9
2021-11-29T15:45:00Z,00000200,01000000,0000.84,0000.26,0000.01,0000.63,0000.08,0000.30,0000.41,0000.35,-000.08,19.0,25.6,,00.0,0631.0,30.8
2021-11-29T15:46:00Z,00000200,01000000,-000.43,0000.28,-000.14,0000.03,0000.11,-000.13,-000.13,-000.26,-000.19,19.0,25.6,,00.0,0630.9,30.8
2021-11-29T15:47:00Z,00000200,01000000,-000.56,0000.21,-000.01,-000.18,0000.06,-000.02,0000.58,0000.45,0000.62,19.0,25.6,,00.0,0630.8,30.9
2021-11-29T15:48:00Z,00000200,01000000,0000.87,0000.42,-000.21,-000.53,0000.08,-000.12,0000.11,0000.19,0000.02,19.0,25.6,,00.0,0630.8,30.9
2021-11-29T15:49:00Z,00000200,01000000,0000.24,0000.43,-000.04,-000.32,0000.28,-000.12,0000.37,0000.35,0000.52,19.0,25.6,,00.0,0630.8,30.9
2021-11-29T15:50:00Z,00000200,01000000,0000.44,0000.39,0000.01,-000.08,-000.17,-000.25,0000.25,0000.26,0000.04,19.1,25.6,,00.0,0630.8,30.9
2021-11-29T15:51:00Z,00000200,01000000,0000.84,0000.53,0000.36,-000.01,0000.32,0000.33,0000.40,0000.24,0000.25,19.1,25.6,,00.0,0630.8,30.9
2021-11-29T15:52:00Z,00000200,01000000,0000.50,0000.32,0000.21,0000.46,-000.05,-000.06,0000.24,0000.40,0000.28,19.1,25.6,,00.0,0630.7,30.9
2021-11-29T15:53:00Z,00000200,01000000,0000.45,0000.53,-000.03,-000.81,0000.00,-000.16,0000.42,0000.20,0000.26,19.2,25.6,,00.0,0630.7,30.9
2021-11-29T15:54:00Z,00000200,01000000,0000.05,0000.25,-000.11,-000.51,0000.04,0000.12,0000.30,0000.28,0000.08,19.2,25.7,,00.0,0630.7,30.9
2021-11-29T15:55:00Z,00000200,01000000,0000.62,0000.29,0000.23,0000.05,0000.26,0000.18,-000.08,-000.00,0000.32,19.2,25.7,,00.0,0630.7,30.9
2021-11-29T15:56:00Z,00000200,01000000,0000.97,-000.07,-000.07,0000.32,-000.00,0000.06,0000.01,0000.58,0000.10,19.3,25.7,,00.0,0630.7,30.9
2021-11-29T15:57:00Z,00000200,41000000,,,,,,,-000.40,-000.89,-000.56,19.3,25.8,,00.0,0630.7,30.9
2021-11-29T15:58:00Z,00000200,61000000,,,,,,,0000.22,0000.28,0000.10,18.9,25.8,,00.0,0629.9,30.9
2021-11-29T15:59:00Z,00000200,21000000,,,,,,,0000.21,-000.15,-000.01,18.9,25.9,,00.0,0629.9,30.9
